Regional Weather Roundup
Issued by NWS

Home | Current Version | Previous Version | Text Only | Print | Product List | Glossary On
Versions: 1 2 3 4 5 6 7 8 9 10 11 12 13 14 15 16 17 18 19 20 21 22 23 24 25 26 27 28 29 30 31 32 33 34 35 36 37 38 39 40 41 42 43 44 45 46 47 48 49 50
000
ASUS43 KMPX 010410
RWRMN
WEATHER ROUNDUP FOR MINNESOTA
NATIONAL WEATHER SERVICE TWIN CITIES/CHANHASSEN MN
1000 PM CST SUN FEB 28 2021


NOTE: "FAIR" INDICATES FEW OR NO CLOUDS BELOW 12,000 FEET WITH NO
SIGNIFICANT WEATHER AND/OR OBSTRUCTIONS TO VISIBILITY. N/A MEANS
CURRENT SKY AND/OR WEATHER CONDITIONS ARE NOT AVAILABLE.

MNZ060>063-068>070-010500-
   Twin Cities Metro

CITY           SKY/WX    TMP DP  RH WIND       PRES   REMARKS
TWIN CITIES    PTCLDY    20  11  68 W9        30.07R WCI   9
ST PAUL        CLEAR     22  11  62 W13       30.07R WCI  10
CRYSTAL        PTCLDY    20  10  65 W8        30.05R WCI  10
BLAINE         PTCLDY    21  12  68 W8        30.05R WCI  12
LAKEVILLE      CLEAR     18  12  79 W8        30.06R WCI   7
EDEN PRAIRIE   PTCLDY    19  12  74 W7        30.06R WCI  10
SOUTH ST PAUL  CLEAR     21  12  66 W7        30.06R WCI  13
LAKE ELMO      FAIR      19  10  68 MISG      30.06R
$$
MNZ001>005-007-008-013>017-022>024-027-028-010500-
   Northwest Minnesota

CITY           SKY/WX    TMP DP  RH WIND       PRES   REMARKS
BEMIDJI        MOCLDY    11   4  71 NW15      30.04R WCI  -5
HALLOCK        PTCLDY     7  -6  56 N15G22    30.17R WCI -11
ROSEAU         PTCLDY    10  -2  56 NW10      30.12R WCI  -3
WARROAD        PTCLDY     7   0  72 NW14      30.11R WCI -10
THIEF RVR FALL CLOUDY    11   2  67 NW17      30.11R WCI  -6
CROOKSTON      MOCLDY    12   3  67 N13       30.14R WCI  -3
FOSSTON        PTCLDY     9   1  72 N14       30.09R WCI  -8
DETROIT LAKES  LGT SNOW  12   9  85 N9G15     30.06R HAZE    WCI   0
MOORHEAD       LGT SNOW  18  10  73 N16       30.12R VSB 1   WCI   3
PARK RAPIDS    CLOUDY    13   3  64 N9        30.02S WCI   1
MAHNOMEN       CLOUDY    12   8  81 N14       30.08R HAZE    WCI  -3
$$
MNZ006-009>011-018-025>026-010500-
   North Central Minnesota

CITY           SKY/WX    TMP DP  RH WIND       PRES   REMARKS
BAUDETTE       PTCLDY     7   1  76 NW14      30.06R WCI -10
FLAG ISLAND    CLEAR      3 -11  51 N21G28    30.10R WCI -18
INTL FALLS     PTCLDY     7  -4  60 NW13      30.02R WCI  -9
WASKISH        PTCLDY    10   1  67 NW9G16    30.07R WCI  -2
BIG FORK       PTCLDY    10   1  67 NW3       30.06R
LONGVILLE      PTCLDY    10   3  72 NW5       30.03R WCI   2
GRAND RAPIDS   MOCLDY    12   4  70 NW13      30.03R WCI  -3
CRANE LAKE     PTCLDY     9   0  66 NW10G16   30.02R WCI  -6
ORR            PTCLDY     9   0  66 NW9G18    29.97R WCI  -5
COOK           CLEAR     10   1  67 W9        29.98R WCI  -2
WALKER         CLOUDY    12   4  71 NW6       30.04R WCI   2
$$
MNZ012-019>021-037-010500-
   Northeast Minnesota

CITY           SKY/WX    TMP DP  RH WIND       PRES   REMARKS
DULUTH         MOCLDY    15   3  59 NW12G21   29.95R WCI   2
ELY            CLEAR      9   0  66 NW10G16   29.94R WCI  -6
HIBBING        MOCLDY    11   1  64 NW12G18   29.98R WCI  -3
EVELETH        PTCLDY    12   2  63 NW15G24   29.98R WCI  -4
DULUTH HARBOR  MOCLDY    19   7  58 NW16      30.03R WCI   5
TWO HARBORS    MOCLDY    14   0  52 NW8G16    29.96R WCI   3
SILVER BAY     MOCLDY    10  -2  56 W3        29.95R
GRAND MARAIS     N/A     15   1  53 VRB5G17   29.94R WCI   8
G MARAIS ARPRT MOCLDY     9  -2  61 NW12G22   29.82R WCI  -6
$$
MNZ029>031-032-039>041-046>048-054>057-064-010500-
   West Central Minnesota

CITY           SKY/WX    TMP DP  RH WIND       PRES   REMARKS
FERGUS FALLS   LGT SNOW  16  10  79 N9        30.03R WCI   4
WHEATON        CLOUDY    21  14  73 N6        30.09R WCI  14
MORRIS         PTCLDY    18  12  79 CALM      30.06R
ALEXANDRIA     CLOUDY    18  10  71 N8        30.03R WCI   8
ELBOW LAKE     CLOUDY    18  11  77 NE9       30.05R WCI   6
WADENA         CLOUDY    14   7  73 N8        30.03R WCI   3
GLENWOOD       MOCLDY    18  12  79 N7        30.03R WCI   8
APPLETON       PTCLDY    18  12  79 E3        30.05S
BENSON         PTCLDY    16  12  86 CALM      30.06R
ORTONVILLE     PTCLDY    19  16  86 CALM      30.05R
MADISON        PTCLDY    21  16  79 W3        30.07R
WILLMAR        FAIR      14  10  85 SW5       30.08S WCI   6
$$
MNZ033>034-036-042>043-049>051-058-059-010500-
   Central Minnesota

CITY           SKY/WX    TMP DP  RH WIND       PRES   REMARKS
ST CLOUD       MOCLDY    18  10  71 NW8       30.04R WCI   8
SAUK CENTRE      N/A     19  11  73 N7        30.04R WCI   9
PAYNESVILLE    CLOUDY    19  14  79 NW3       30.04S
AITKIN         MOCLDY    14   7  73 NW7       30.04R WCI   4
PINE RIVER     PTCLDY    16   7  67 N8        30.07R WCI   5
BRAINERD       MOCLDY    18   7  62 NW10      30.03R WCI   6
STAPLES        CLOUDY    16   9  73 N9        30.03S WCI   4
LONG PRAIRIE   MOCLDY    18  10  73 N7        30.03R WCI   8
LITTLE FALLS   MOCLDY    19   9  63 NW5       30.04S WCI  13
CAMP RIPLEY    MOCLDY    17   9  71 NW10      30.05R WCI   5
LITCHFIELD     PTCLDY    16  14  93 CALM      30.05S
BUFFALO        CLOUDY    18  12  77 MISG      30.08R
MAPLE LAKE       N/A     20  14  76 W5        30.06R WCI  14
HUTCHINSON     PTCLDY    18  15  86 S3        30.07S
$$
MNZ037-044-045-052-053-010500-
   East Central Minnesota

CITY           SKY/WX    TMP DP  RH WIND       PRES   REMARKS
PRINCETON      MOCLDY    19  10  68 W8        30.04R WCI   9
MORA           MOCLDY    19   9  63 NW8       30.04R WCI   9
CAMBRIDGE      MOCLDY    21   9  58 W9        30.05R WCI  11
RUSH CITY      CLOUDY    19   9  63 W8        30.03R WCI   9
MOOSE LAKE     MOCLDY    18   7  62 NW10G17   30.00R WCI   6
HINCKLEY       MOCLDY    21   9  58 NW13      30.02R WCI   9
CLOQUET        MOCLDY    14   3  62 NW12G18   29.97R WCI   0
MCGREGOR       MOCLDY    18   9  68 NW8       30.03R WCI   7
$$
MNZ071>073-080-081-089-090-097-098-010500-
   Southwest Minnesota

CITY           SKY/WX    TMP DP  RH WIND       PRES   REMARKS
MONTEVIDEO     PTCLDY    18  10  73 CALM      30.06R
GRANITE FALLS  PTCLDY    12   9  87 S5        30.08R WCI   4
CANBY          PTCLDY    23  17  77 SW8       30.05R WCI  14
MARSHALL       PTCLDY    21  15  78 SW16      30.06S WCI   7
REDWOOD FALLS  CLEAR     18  11  74 SW9       30.07S WCI   7
OLIVIA         PTCLDY    12  10  92 CALM      30.07R
PIPESTONE        N/A     16  12  86 SW7       30.06S WCI   6
WINDOM         CLEAR     18  14  86 W5        30.07F WCI  11
WORTHINGTON    CLEAR     19  15  84 SW9       30.10R WCI   8
JACKSON        PTCLDY    21  18  86 W9        30.10R WCI  11
TRACY          CLEAR     21  14  73 SW14      30.05F WCI   8
SLAYTON        CLEAR     17  13  82 SW12      30.07S WCI   4
$$
MNZ065>067-074>077-082>085-091>093-010500-
   South Central Minnesota

CITY           SKY/WX    TMP DP  RH WIND       PRES   REMARKS
MANKATO        CLEAR     19  17  92 W6        30.10R WCI  11
NEW ULM        CLEAR     19  16  86 SW7       30.08S WCI  10
ST JAMES       CLEAR     21  16  79 W9        30.09S WCI  11
FAIRMONT       CLEAR     21  17  84 W12       30.11R WCI   9
GLENCOE        PTCLDY    19  14  84 CALM      30.07S
FARIBAULT      CLEAR     18  16  93 SW3       30.08R
OWATONNA       CLEAR     18  14  86 W8        30.07R WCI   7
WASECA         CLEAR     19  14  79 W9        30.10R WCI   9
ALBERT LEA     CLEAR     19  16  86 W6        30.08R WCI  11
$$
MNZ078>079-086>088-094>096-010500-
   Southeast Minnesota

CITY           SKY/WX    TMP DP  RH WIND       PRES   REMARKS
ROCHESTER      CLEAR     18  12  77 W17       30.04R WCI   3
RED WING       CLEAR     21  12  68 W7        30.05R WCI  13
STANTON        CLEAR     19  14  79 W8        30.06R WCI   9
DODGE CENTER   CLEAR     18  12  79 W12       30.05R WCI   5
WINONA         CLEAR     23  18  80 W13       30.06R WCI  11
PRESTON        CLEAR     18  13  81 NW16G24   30.04R WCI   3
$$
ABBREVIATIONS USED IN REMARKS
   TC - TEMPERATURES IN CELSIUS
  WCI - WIND CHILL INDEX
   HX - HEAT INDEX
  VSB - VISIBILITY
$$



USA.gov is the U.S. government's official web portal to all federal, state and local government web resources and services.